#Datum;Uhrzeit;WR;Pac;DaySum;Status;WR;Pac;DaySum;Status;Pdc1;Udc;Temp;WR;Pac;DaySum;Status;Pdc1;Udc;Temp;WR;Pac;DaySum;Status;Pdc1;Udc;Temp;WR;Pac;DaySum;Status;Pdc1;Pdc2;Udc1;Udc2;Temp;WR;Pac;DaySum;Status;Pdc1;Pdc2;Udc1;Udc2;Temp;WR;Pac;DaySum;Status;Pdc1;Udc;Temp;WR;Pac;DaySum;Status;Pdc1;Udc;Temp;WR;Pac;DaySum;Status;Pdc1;Udc;Temp
29.12.20;23:55:00;1;597;15182;0;2;0;3878;0;0;0;0;3;0;2392;0;0;0;0;4;0;3941;0;0;0;0;5;0;0;0;0;0;0;0;0;6;0;12900;0;0;0;0;0;0;7;0;13333;0;0;0;0;8;0;13610;0;0;0;0;9;0;7253;0;0;0;0
29.12.20;23:50:00;1;999;15133;0;2;0;3878;0;0;0;0;3;0;2392;0;0;0;0;4;0;3941;0;0;0;0;5;0;0;0;0;0;0;0;0;6;0;12900;0;0;0;0;0;0;7;0;13333;0;0;0;0;8;0;13610;0;0;0;0;9;0;7253;0;0;0;0
29.12.20;23:45:00;1;823;15055;0;2;0;3878;0;0;0;0;3;0;2392;0;0;0;0;4;0;3941;0;0;0;0;5;0;0;0;0;0;0;0;0;6;0;12900;0;0;0;0;0;0;7;0;13333;0;0;0;0;8;0;13610;0;0;0;0;9;0;7253;0;0;0;0
29.12.20;23:40:00;1;691;14997;0;2;0;3878;0;0;0;0;3;0;2392;0;0;0;0;4;0;3941;0;0;0;0;5;0;0;0;0;0;0;0;0;6;0;12900;0;0;0;0;0;0;7;0;13333;0;0;0;0;8;0;13610;0;0;0;0;9;0;7253;0;0;0;0
29.12.20;23:35:00;1;735;14939;0;2;0;3878;0;0;0;0;3;0;2392;0;0;0;0;4;0;3941;0;0;0;0;5;0;0;0;0;0;0;0;0;6;0;12900;0;0;0;0;0;0;7;0;13333;0;0;0;0;8;0;13610;0;0;0;0;9;0;7253;0;0;0;0
29.12.20;23:30:00;1;704;14879;0;2;0;3878;0;0;0;0;3;0;2392;0;0;0;0;4;0;3941;0;0;0;0;5;0;0;0;0;0;0;0;0;6;0;12900;0;0;0;0;0;0;7;0;13333;0;0;0;0;8;0;13610;0;0;0;0;9;0;7253;0;0;0;0
29.12.20;23:25:00;1;674;14820;0;2;0;3878;0;0;0;0;3;0;2392;0;0;0;0;4;0;3941;0;0;0;0;5;0;0;0;0;0;0;0;0;6;0;12900;0;0;0;0;0;0;7;0;13333;0;0;0;0;8;0;13610;0;0;0;0;9;0;7253;0;0;0;0
29.12.20;23:20:00;1;680;14763;0;2;0;3878;0;0;0;0;3;0;2392;0;0;0;0;4;0;3941;0;0;0;0;5;0;0;0;0;0;0;0;0;6;0;12900;0;0;0;0;0;0;7;0;13333;0;0;0;0;8;0;13610;0;0;0;0;9;0;7253;0;0;0;0
29.12.20;23:15:00;1;714;14707;0;2;0;3878;0;0;0;0;3;0;2392;0;0;0;0;4;0;3941;0;0;0;0;5;0;0;0;0;0;0;0;0;6;0;12900;0;0;0;0;0;0;7;0;13333;0;0;0;0;8;0;13610;0;0;0;0;9;0;7253;0;0;0;0
29.12.20;23:10:00;1;704;14650;0;2;0;3878;0;0;0;0;3;0;2392;0;0;0;0;4;0;3941;0;0;0;0;5;0;0;0;0;0;0;0;0;6;0;12900;0;0;0;0;0;0;7;0;13333;0;0;0;0;8;0;13610;0;0;0;0;9;0;7253;0;0;0;0
29.12.20;23:05:00;1;641;14596;0;2;0;3878;0;0;0;0;3;0;2392;0;0;0;0;4;0;3941;0;0;0;0;5;0;0;0;0;0;0;0;0;6;0;12900;0;0;0;0;0;0;7;0;13333;0;0;0;0;8;0;13610;0;0;0;0;9;0;7253;0;0;0;0
29.12.20;23:00:00;1;682;14542;0;2;0;3878;0;0;0;0;3;0;2392;0;0;0;0;4;0;3941;0;0;0;0;5;0;0;0;0;0;0;0;0;6;0;12900;0;0;0;0;0;0;7;0;13333;0;0;0;0;8;0;13610;0;0;0;0;9;0;7253;0;0;0;0
29.12.20;22:55:00;1;642;14486;0;2;0;3878;0;0;0;0;3;0;2392;0;0;0;0;4;0;3941;0;0;0;0;5;0;0;0;0;0;0;0;0;6;0;12900;2;0;0;0;0;0;7;0;13333;0;0;0;0;8;0;13610;0;0;0;0;9;0;7253;0;0;0;0
29.12.20;22:50:00;1;603;14432;0;2;0;3878;0;0;0;0;3;0;2392;0;0;0;0;4;0;3941;0;0;0;0;5;0;0;0;0;0;0;0;0;6;0;12900;2;0;0;0;0;0;7;0;13333;0;0;0;0;8;0;13610;0;0;0;0;9;0;7253;0;0;0;0
29.12.20;22:45:00;1;677;14381;0;2;0;3878;0;0;0;0;3;0;2392;0;0;0;0;4;0;3941;0;0;0;0;5;0;0;0;0;0;0;0;0;6;0;12900;2;0;0;0;0;0;7;0;13333;0;0;0;0;8;0;13610;0;0;0;0;9;0;7253;0;0;0;0
29.12.20;22:40:00;1;680;14325;0;2;0;3878;0;0;0;0;3;0;2392;0;0;0;0;4;0;3941;0;0;0;0;5;0;0;0;0;0;0;0;0;6;0;12900;2;0;0;0;0;0;7;0;13333;0;0;0;0;8;0;13610;0;0;0;0;9;0;7253;0;0;0;0
29.12.20;22:35:00;1;712;14268;0;2;0;3878;0;0;0;0;3;0;2392;0;0;0;0;4;0;3941;0;0;0;0;5;0;0;0;0;0;0;0;0;6;0;12900;2;0;0;0;0;0;7;0;13333;0;0;0;0;8;0;13610;0;0;0;0;9;0;7253;0;0;0;0
29.12.20;22:30:00;1;799;14210;0;2;0;3878;0;0;0;0;3;0;2392;0;0;0;0;4;0;3941;0;0;0;0;5;0;0;0;0;0;0;0;0;6;0;12900;2;0;0;0;0;0;7;0;13333;0;0;0;0;8;0;13610;0;0;0;0;9;0;7253;0;0;0;0
29.12.20;22:25:00;1;1111;14142;0;2;0;3878;0;0;0;0;3;0;2392;0;0;0;0;4;0;3941;0;0;0;0;5;0;0;0;0;0;0;0;0;6;0;12900;2;0;0;0;0;0;7;0;13333;0;0;0;0;8;0;13610;0;0;0;0;9;0;7253;0;0;0;0
29.12.20;22:20:00;1;725;14044;0;2;0;3878;0;0;0;0;3;0;2392;0;0;0;0;4;0;3941;0;0;0;0;5;0;0;0;0;0;0;0;0;6;0;12900;2;0;0;0;0;0;7;0;13333;0;0;0;0;8;0;13610;0;0;0;0;9;0;7253;0;0;0;0
29.12.20;22:15:00;1;662;13982;0;2;0;3878;0;0;0;0;3;0;2392;0;0;0;0;4;0;3941;0;0;0;0;5;0;0;0;0;0;0;0;0;6;0;12900;2;0;0;0;0;0;7;0;13333;0;0;0;0;8;0;13610;0;0;0;0;9;0;7253;0;0;0;0
29.12.20;22:10:00;1;640;13926;0;2;0;3878;0;0;0;0;3;0;2392;0;0;0;0;4;0;3941;0;0;0;0;5;0;0;0;0;0;0;0;0;6;0;12900;2;0;0;0;0;0;7;0;13333;0;0;0;0;8;0;13610;0;0;0;0;9;0;7253;0;0;0;0
29.12.20;22:05:00;1;639;13873;0;2;0;3878;0;0;0;0;3;0;2392;0;0;0;0;4;0;3941;0;0;0;0;5;0;0;0;0;0;0;0;0;6;0;12900;2;0;0;0;0;0;7;0;13333;0;0;0;0;8;0;13610;0;0;0;0;9;0;7253;0;0;0;0
29.12.20;22:00:00;1;741;13819;0;2;0;3878;0;0;0;0;3;0;2392;0;0;0;0;4;0;3941;0;0;0;0;5;0;0;0;0;0;0;0;0;6;0;12900;2;0;0;0;0;0;7;0;13333;0;0;0;0;8;0;13610;0;0;0;0;9;0;7253;0;0;0;0
29.12.20;21:55:00;1;688;13762;0;2;0;3878;0;0;0;0;3;0;2392;0;0;0;0;4;0;3941;0;0;0;0;5;0;0;0;0;0;0;0;0;6;0;12900;2;0;0;0;0;0;7;0;13333;0;0;0;0;8;0;13610;0;0;0;0;9;0;7253;0;0;0;0
29.12.20;21:50:00;1;696;13705;0;2;0;3878;0;0;0;0;3;0;2392;0;0;0;0;4;0;3941;0;0;0;0;5;0;0;0;0;0;0;0;0;6;0;12900;2;0;0;0;0;0;7;0;13333;0;0;0;0;8;0;13610;0;0;0;0;9;0;7253;0;0;0;0
29.12.20;21:45:00;1;726;13646;0;2;0;3878;0;0;0;0;3;0;2392;0;0;0;0;4;0;3941;0;0;0;0;5;0;0;0;0;0;0;0;0;6;0;12900;2;0;0;0;0;0;7;0;13333;0;0;0;0;8;0;13610;0;0;0;0;9;0;7253;0;0;0;0
29.12.20;21:40:00;1;765;13585;0;2;0;3878;0;0;0;0;3;0;2392;0;0;0;0;4;0;3941;0;0;0;0;5;0;0;0;0;0;0;0;0;6;0;12900;2;0;0;0;0;0;7;0;13333;0;0;0;0;8;0;13610;0;0;0;0;9;0;7253;0;0;0;0
29.12.20;21:35:00;1;758;13522;0;2;0;3878;0;0;0;0;3;0;2392;0;0;0;0;4;0;3941;0;0;0;0;5;0;0;0;0;0;0;0;0;6;0;12900;2;0;0;0;0;0;7;0;13333;0;0;0;0;8;0;13610;0;0;0;0;9;0;7253;0;0;0;0
29.12.20;21:30:00;1;769;13459;0;2;0;3878;0;0;0;0;3;0;2392;0;0;0;0;4;0;3941;0;0;0;0;5;0;0;0;0;0;0;0;0;6;0;12900;2;0;0;0;0;0;7;0;13333;0;0;0;0;8;0;13610;0;0;0;0;9;0;7253;0;0;0;0
29.12.20;21:25:00;1;803;13396;0;2;0;3878;0;0;0;0;3;0;2392;0;0;0;0;4;0;3941;0;0;0;0;5;0;0;0;0;0;0;0;0;6;0;12900;2;0;0;0;0;0;7;0;13333;0;0;0;0;8;0;13610;0;0;0;0;9;0;7253;0;0;0;0
29.12.20;21:20:00;1;865;13329;0;2;0;3878;0;0;0;0;3;0;2392;0;0;0;0;4;0;3941;0;0;0;0;5;0;0;0;0;0;0;0;0;6;0;12900;2;0;0;0;0;0;7;0;13333;0;0;0;0;8;0;13610;0;0;0;0;9;0;7253;0;0;0;0
29.12.20;21:15:00;1;748;13258;0;2;0;3878;0;0;0;0;3;0;2392;0;0;0;0;4;0;3941;0;0;0;0;5;0;0;0;0;0;0;0;0;6;0;12900;2;0;0;0;0;0;7;0;13333;0;0;0;0;8;0;13610;0;0;0;0;9;0;7253;0;0;0;0
29.12.20;21:10:00;1;770;13196;0;2;0;3878;0;0;0;0;3;0;2392;0;0;0;0;4;0;3941;0;0;0;0;5;0;0;0;0;0;0;0;0;6;0;12900;2;0;0;0;0;0;7;0;13333;0;0;0;0;8;0;13610;0;0;0;0;9;0;7253;0;0;0;0
29.12.20;21:05:00;1;772;13132;0;2;0;3878;0;0;0;0;3;0;2392;0;0;0;0;4;0;3941;0;0;0;0;5;0;0;0;0;0;0;0;0;6;0;12900;2;0;0;0;0;0;7;0;13333;0;0;0;0;8;0;13610;0;0;0;0;9;0;7253;0;0;0;0
29.12.20;21:00:00;1;846;13067;0;2;0;3878;0;0;0;0;3;0;2392;0;0;0;0;4;0;3941;0;0;0;0;5;0;0;0;0;0;0;0;0;6;0;12900;2;0;0;0;0;0;7;0;13333;0;0;0;0;8;0;13610;0;0;0;0;9;0;7253;0;0;0;0
29.12.20;20:55:00;1;455;12999;0;2;0;3878;0;0;0;0;3;0;2392;0;0;0;0;4;0;3941;0;0;0;0;5;0;0;0;0;0;0;0;0;6;0;12900;2;0;0;0;0;0;7;0;13333;0;0;0;0;8;0;13610;0;0;0;0;9;0;7253;0;0;0;0
29.12.20;20:50:00;1;504;12964;0;2;0;3878;0;0;0;0;3;0;2392;0;0;0;0;4;0;3941;0;0;0;0;5;0;0;0;0;0;0;0;0;6;0;12900;2;0;0;0;0;0;7;0;13333;0;0;0;0;8;0;13610;0;0;0;0;9;0;7253;0;0;0;0
29.12.20;20:45:00;1;512;12923;0;2;0;3878;0;0;0;0;3;0;2392;0;0;0;0;4;0;3941;0;0;0;0;5;0;0;0;0;0;0;0;0;6;0;12900;2;0;0;0;0;0;7;0;13333;0;0;0;0;8;0;13610;0;0;0;0;9;0;7253;0;0;0;0
29.12.20;20:40:00;1;525;12879;0;2;0;3878;0;0;0;0;3;0;2392;0;0;0;0;4;0;3941;0;0;0;0;5;0;0;0;0;0;0;0;0;6;0;12900;2;0;0;0;0;0;7;0;13333;0;0;0;0;8;0;13610;0;0;0;0;9;0;7253;0;0;0;0
29.12.20;20:35:00;1;479;12836;0;2;0;3878;0;0;0;0;3;0;2392;0;0;0;0;4;0;3941;0;0;0;0;5;0;0;0;0;0;0;0;0;6;0;12900;2;0;0;0;0;0;7;0;13333;0;0;0;0;8;0;13610;0;0;0;0;9;0;7253;0;0;0;0
29.12.20;20:30:00;1;568;12794;0;2;0;3878;0;0;0;0;3;0;2392;0;0;0;0;4;0;3941;0;0;0;0;5;0;0;0;0;0;0;0;0;6;0;12900;2;0;0;0;0;0;7;0;13333;0;0;0;0;8;0;13610;0;0;0;0;9;0;7253;0;0;0;0
29.12.20;20:25:00;1;589;12747;0;2;0;3878;0;0;0;0;3;0;2392;0;0;0;0;4;0;3941;0;0;0;0;5;0;0;0;0;0;0;0;0;6;0;12900;2;0;0;0;0;0;7;0;13333;0;0;0;0;8;0;13610;0;0;0;0;9;0;7253;0;0;0;0
29.12.20;20:20:00;1;709;12699;0;2;0;3878;0;0;0;0;3;0;2392;0;0;0;0;4;0;3941;0;0;0;0;5;0;0;0;0;0;0;0;0;6;0;12900;2;0;0;0;0;0;7;0;13333;0;0;0;0;8;0;13610;0;0;0;0;9;0;7253;0;0;0;0
29.12.20;20:15:00;1;665;12639;0;2;0;3878;0;0;0;0;3;0;2392;0;0;0;0;4;0;3941;0;0;0;0;5;0;0;0;0;0;0;0;0;6;0;12900;2;0;0;0;0;0;7;0;13333;0;0;0;0;8;0;13610;0;0;0;0;9;0;7253;0;0;0;0
29.12.20;20:10:00;1;690;12584;0;2;0;3878;0;0;0;0;3;0;2392;0;0;0;0;4;0;3941;0;0;0;0;5;0;0;0;0;0;0;0;0;6;0;12900;2;0;0;0;0;0;7;0;13333;0;0;0;0;8;0;13610;0;0;0;0;9;0;7253;0;0;0;0
29.12.20;20:05:00;1;725;12527;0;2;0;3878;0;0;0;0;3;0;2392;0;0;0;0;4;0;3941;0;0;0;0;5;0;0;0;0;0;0;0;0;6;0;12900;2;0;0;0;0;0;7;0;13333;0;0;0;0;8;0;13610;0;0;0;0;9;0;7253;0;0;0;0
29.12.20;20:00:00;1;777;12466;0;2;0;3878;0;0;0;0;3;0;2392;0;0;0;0;4;0;3941;0;0;0;0;5;0;0;0;0;0;0;0;0;6;0;12900;2;0;0;0;0;0;7;0;13333;0;0;0;0;8;0;13610;0;0;0;0;9;0;7253;0;0;0;0
29.12.20;19:55:00;1;741;12403;0;2;0;3878;0;0;0;0;3;0;2392;0;0;0;0;4;0;3941;0;0;0;0;5;0;0;0;0;0;0;0;0;6;0;12900;2;0;0;0;0;0;7;0;13333;0;0;0;0;8;0;13610;0;0;0;0;9;0;7253;0;0;0;0
29.12.20;19:50:00;1;692;12340;0;2;0;3878;0;0;0;0;3;0;2392;0;0;0;0;4;0;3941;0;0;0;0;5;0;0;0;0;0;0;0;0;6;0;12900;2;0;0;0;0;0;7;0;13333;0;0;0;0;8;0;13610;0;0;0;0;9;0;7253;0;0;0;0
29.12.20;19:45:00;1;762;12282;0;2;0;3878;0;0;0;0;3;0;2392;0;0;0;0;4;0;3941;0;0;0;0;5;0;0;0;0;0;0;0;0;6;0;12900;2;0;0;0;0;0;7;0;13333;0;0;0;0;8;0;13610;0;0;0;0;9;0;7253;0;0;0;0
29.12.20;19:40:00;1;646;12225;0;2;0;3878;0;0;0;0;3;0;2392;0;0;0;0;4;0;3941;0;0;0;0;5;0;0;0;0;0;0;0;0;6;0;12900;2;0;0;0;0;0;7;0;13333;0;0;0;0;8;0;13610;0;0;0;0;9;0;7253;0;0;0;0
29.12.20;19:35:00;1;686;12171;0;2;0;3878;0;0;0;0;3;0;2392;0;0;0;0;4;0;3941;0;0;0;0;5;0;0;0;0;0;0;0;0;6;0;12900;0;0;0;0;0;0;7;0;13333;0;0;0;0;8;0;13610;0;0;0;0;9;0;7253;0;0;0;0
29.12.20;19:30:00;1;770;12113;0;2;0;3878;0;0;0;0;3;0;2392;0;0;0;0;4;0;3941;0;0;0;0;5;0;0;0;0;0;0;0;0;6;0;12900;2;0;0;0;0;0;7;0;13333;0;0;0;0;8;0;13610;0;0;0;0;9;0;7253;0;0;0;0
29.12.20;19:25:00;1;816;12049;0;2;0;3878;0;0;0;0;3;0;2392;0;0;0;0;4;0;3941;0;0;0;0;5;0;0;0;0;0;0;0;0;6;0;12900;2;0;0;0;0;0;7;0;13333;0;0;0;0;8;0;13610;0;0;0;0;9;0;7253;0;0;0;0
29.12.20;19:20:00;1;1232;11978;0;2;0;3878;0;0;0;0;3;0;2392;0;0;0;0;4;0;3941;0;0;0;0;5;0;0;0;0;0;0;0;0;6;0;12900;2;0;0;0;0;0;7;0;13333;0;0;0;0;8;0;13610;0;0;0;0;9;0;7253;0;0;0;0
29.12.20;19:15:00;1;966;11878;0;2;0;3878;0;0;0;0;3;0;2392;0;0;0;0;4;0;3941;0;0;0;0;5;0;0;0;0;0;0;0;0;6;0;12900;2;0;0;0;0;0;7;0;13333;0;0;0;0;8;0;13610;0;0;0;0;9;0;7253;0;0;0;0
29.12.20;19:10:00;1;919;11796;0;2;0;3878;0;0;0;0;3;0;2392;0;0;0;0;4;0;3941;0;0;0;0;5;0;0;0;0;0;0;0;0;6;0;12900;2;0;0;0;0;0;7;0;13333;0;0;0;0;8;0;13610;0;0;0;0;9;0;7253;0;0;0;0
29.12.20;19:05:00;1;968;11719;0;2;0;3878;0;0;0;0;3;0;2392;0;0;0;0;4;0;3941;0;0;0;0;5;0;0;0;0;0;0;0;0;6;0;12900;2;0;0;0;0;0;7;0;13333;0;0;0;0;8;0;13610;0;0;0;0;9;0;7253;0;0;0;0
29.12.20;19:00:00;1;1626;11638;0;2;0;3878;0;0;0;0;3;0;2392;0;0;0;0;4;0;3941;0;0;0;0;5;0;0;0;0;0;0;0;0;6;0;12900;2;0;0;0;0;0;7;0;13333;0;0;0;0;8;0;13610;0;0;0;0;9;0;7253;0;0;0;0
29.12.20;18:55:00;1;975;11510;0;2;0;3878;0;0;0;0;3;0;2392;0;0;0;0;4;0;3941;0;0;0;0;5;0;0;0;0;0;0;0;0;6;0;12900;2;0;0;0;0;0;7;0;13333;0;0;0;0;8;0;13610;0;0;0;0;9;0;7253;0;0;0;0
29.12.20;18:50:00;1;950;11427;0;2;0;3878;0;0;0;0;3;0;2392;0;0;0;0;4;0;3941;0;0;0;0;5;0;0;0;0;0;0;0;0;6;0;12900;2;0;0;0;0;0;7;0;13333;0;0;0;0;8;0;13610;0;0;0;0;9;0;7253;0;0;0;0
29.12.20;18:45:00;1;776;11347;0;2;0;3878;0;0;0;0;3;0;2392;0;0;0;0;4;0;3941;0;0;0;0;5;0;0;0;0;0;0;0;0;6;0;12900;2;0;0;0;0;0;7;0;13333;0;0;0;0;8;0;13610;0;0;0;0;9;0;7253;0;0;0;0
29.12.20;18:40:00;1;629;11282;0;2;0;3878;0;0;0;0;3;0;2392;0;0;0;0;4;0;3941;0;0;0;0;5;0;0;0;0;0;0;0;0;6;0;12900;2;0;0;0;0;0;7;0;13333;0;0;0;0;8;0;13610;0;0;0;0;9;0;7253;0;0;0;0
29.12.20;18:35:00;1;622;11230;0;2;0;3878;0;0;0;0;3;0;2392;0;0;0;0;4;0;3941;0;0;0;0;5;0;0;0;0;0;0;0;0;6;0;12900;2;0;0;0;0;0;7;0;13333;0;0;0;0;8;0;13610;0;0;0;0;9;0;7253;0;0;0;0
29.12.20;18:30:00;1;1036;11178;0;2;0;3878;0;0;0;0;3;0;2392;0;0;0;0;4;0;3941;0;0;0;0;5;0;0;0;0;0;0;0;0;6;0;12900;2;0;0;0;0;0;7;0;13333;0;0;0;0;8;0;13610;0;0;0;0;9;0;7253;0;0;0;0
29.12.20;18:25:00;1;669;11095;0;2;0;3878;0;0;0;0;3;0;2392;0;0;0;0;4;0;3941;0;0;0;0;5;0;0;0;0;0;0;0;0;6;0;12900;2;0;0;0;0;0;7;0;13333;0;0;0;0;8;0;13610;0;0;0;0;9;0;7253;0;0;0;0
29.12.20;18:20:00;1;1601;11041;0;2;0;3878;0;0;0;0;3;0;2392;0;0;0;0;4;0;3941;0;0;0;0;5;0;0;0;0;0;0;0;0;6;0;12900;2;0;0;0;0;0;7;0;13333;0;0;0;0;8;0;13610;0;0;0;0;9;0;7253;0;0;0;0
29.12.20;18:15:00;1;1560;10900;0;2;0;3878;0;0;0;0;3;0;2392;0;0;0;0;4;0;3941;0;0;0;0;5;0;0;0;0;0;0;0;0;6;0;12900;2;0;0;0;0;0;7;0;13333;0;0;0;0;8;0;13610;0;0;0;0;9;0;7253;0;0;0;0
29.12.20;18:10:00;1;4130;10764;0;2;0;3878;0;0;0;0;3;0;2392;0;0;0;0;4;0;3941;0;0;0;0;5;0;0;0;0;0;0;0;0;6;0;12900;2;0;0;0;0;0;7;0;13333;0;0;0;0;8;0;13610;0;0;0;0;9;0;7253;0;0;0;0
29.12.20;18:05:00;1;1067;10420;0;2;0;3878;0;0;0;0;3;0;2392;0;0;0;0;4;0;3941;0;0;0;0;5;0;0;0;0;0;0;0;0;6;0;12900;2;0;0;0;0;0;7;0;13333;0;0;0;0;8;0;13610;0;0;0;0;9;0;7253;0;0;0;0
29.12.20;18:00:00;1;686;10331;0;2;0;3878;0;0;0;0;3;0;2392;0;0;0;0;4;0;3941;0;0;0;0;5;0;0;0;0;0;0;0;0;6;0;12900;2;0;0;0;0;0;7;0;13333;0;0;0;0;8;0;13610;0;0;0;0;9;0;7253;0;0;0;0
29.12.20;17:55:00;1;837;10263;0;2;0;3878;0;0;0;0;3;0;2392;0;0;0;0;4;0;3941;0;0;0;0;5;0;0;0;0;0;0;0;0;6;0;12900;2;0;0;0;0;0;7;0;13333;0;0;0;0;8;0;13610;0;0;0;0;9;0;7253;0;0;0;0
29.12.20;17:50:00;1;1279;10185;0;2;0;3878;0;0;0;0;3;0;2392;0;0;0;0;4;0;3941;0;0;0;0;5;0;0;0;0;0;0;0;0;6;0;12900;2;0;0;0;0;0;7;0;13333;0;0;0;0;8;0;13610;0;0;0;0;9;0;7253;0;0;0;0
29.12.20;17:45:00;1;1410;10102;0;2;0;3878;0;0;0;0;3;0;2392;0;0;0;0;4;0;3941;0;0;0;0;5;0;0;0;0;0;0;0;0;6;0;12900;2;0;0;0;0;0;7;0;13333;0;0;0;0;8;0;13610;0;0;0;0;9;0;7253;0;0;0;0
29.12.20;17:40:00;1;827;9983;0;2;0;3878;0;0;0;0;3;0;2392;0;0;0;0;4;0;3941;0;0;0;0;5;0;0;0;0;0;0;0;0;6;0;12900;2;0;0;0;0;0;7;0;13333;0;0;0;0;8;0;13610;0;0;0;0;9;0;7253;0;0;0;0
29.12.20;17:35:00;1;496;9908;0;2;0;3878;0;0;0;0;3;0;2392;0;0;0;0;4;0;3941;0;0;0;0;5;0;0;0;0;0;0;0;0;6;0;12900;2;0;0;0;0;0;7;0;13333;0;0;0;0;8;0;13610;0;0;0;0;9;0;7253;0;0;0;0
29.12.20;17:30:00;1;590;9866;0;2;0;3878;0;0;0;0;3;0;2392;0;0;0;0;4;0;3941;0;0;0;0;5;0;0;0;0;0;0;0;0;6;0;12900;2;0;0;0;0;0;7;0;13333;0;0;0;0;8;0;13610;0;0;0;0;9;0;7253;0;0;0;0
29.12.20;17:25:00;1;833;9818;0;2;0;3878;0;0;0;0;3;0;2392;0;0;0;0;4;0;3941;0;0;0;0;5;0;0;0;0;0;0;0;0;6;0;12900;2;0;0;0;0;0;7;0;13333;0;0;0;0;8;0;13610;0;0;0;0;9;0;7253;0;0;0;0
29.12.20;17:20:00;1;401;9741;0;2;0;3878;0;0;0;0;3;0;2392;0;0;0;0;4;0;3941;0;0;0;0;5;0;0;0;0;0;0;0;0;6;0;12900;2;0;0;0;0;0;7;0;13333;0;0;0;0;8;0;13610;0;0;0;0;9;0;7253;0;0;0;0
29.12.20;17:15:00;1;637;9707;0;2;0;3878;0;0;0;0;3;0;2392;0;0;0;0;4;0;3941;0;0;0;0;5;0;0;0;0;0;0;0;0;6;0;12900;2;0;0;0;0;0;7;0;13333;0;0;0;0;8;0;13610;0;0;0;0;9;0;7253;0;0;0;0
29.12.20;17:10:00;1;1209;9666;0;2;0;3878;0;0;0;0;3;0;2392;0;0;0;0;4;0;3941;0;0;0;0;5;0;0;0;0;0;0;0;0;6;0;12900;2;0;0;0;0;0;7;0;13333;0;0;0;0;8;0;13610;0;0;0;0;9;0;7253;0;0;0;0
29.12.20;17:05:00;1;359;9625;0;2;0;3878;0;0;0;0;3;0;2392;0;0;0;0;4;0;3941;0;0;0;0;5;0;0;0;0;0;0;0;0;6;0;12900;2;0;0;0;0;0;7;0;13333;0;0;0;0;8;0;13610;0;0;0;0;9;0;7253;0;0;0;0
29.12.20;17:00:00;1;779;9595;0;2;0;3878;0;0;0;0;3;0;2392;0;0;0;0;4;0;3941;0;0;0;0;5;0;0;0;0;0;0;0;0;6;0;12900;2;0;0;0;0;0;7;0;13333;0;0;0;0;8;0;13610;0;0;0;0;9;0;7253;0;0;0;0
29.12.20;16:55:00;1;381;9532;0;2;0;3878;0;0;0;0;3;0;2392;0;0;0;0;4;0;3941;0;0;0;0;5;0;0;0;0;0;0;0;0;6;0;12900;2;0;0;0;0;0;7;0;13333;0;0;0;0;8;0;13610;0;0;0;0;9;0;7253;0;0;0;0
29.12.20;16:50:00;1;299;9499;0;2;0;3878;0;0;0;0;3;0;2392;0;0;0;0;4;0;3941;0;0;0;0;5;0;0;0;0;0;0;0;0;6;0;12900;2;0;0;0;0;0;7;0;13333;0;0;0;0;8;0;13610;0;0;0;0;9;0;7253;0;0;0;0
29.12.20;16:45:00;1;298;9474;0;2;0;3878;0;0;30;1;3;0;2392;0;0;133;6;4;0;3941;0;0;0;0;5;0;0;0;0;0;0;0;0;6;0;12900;2;0;0;0;0;0;7;0;13333;0;0;0;0;8;0;13610;0;0;0;0;9;0;7253;0;0;0;0
29.12.20;16:40:00;1;287;9449;0;2;0;3878;6;0;282;10;3;0;2392;6;0;313;13;4;0;3941;0;0;42;6;5;0;0;0;0;0;0;0;0;6;0;12900;2;0;0;0;0;0;7;0;13333;0;0;0;0;8;0;13610;0;0;0;0;9;0;7253;0;0;0;0
29.12.20;16:35:00;1;496;9425;0;2;0;3878;6;0;329;10;3;0;2392;6;0;400;13;4;0;3941;1;0;96;9;5;0;0;0;0;0;0;0;0;6;0;12900;0;2;0;57;36;6;7;0;13333;0;0;0;0;8;0;13610;0;0;0;0;9;0;7253;0;0;36;1
29.12.20;16:30:00;1;328;9372;0;2;0;3878;6;0;366;10;3;0;2392;6;1;442;13;4;0;3941;1;0;137;9;5;0;0;0;0;0;0;0;0;6;0;12900;23;6;4;431;237;22;7;0;13333;2;0;285;14;8;0;13610;6;0;286;14;9;0;7253;6;0;298;10
29.12.20;16:25:00;1;345;9344;0;2;0;3878;6;0;393;10;3;1;2392;4;4;459;13;4;0;3941;1;0;188;9;5;0;0;0;0;0;0;0;0;6;0;12900;23;7;2;181;556;22;7;0;13333;6;0;378;15;8;0;13610;6;0;381;14;9;0;7253;6;0;399;10
29.12.20;16:20:00;1;321;9315;0;2;0;3878;6;0;407;11;3;2;2392;3;7;474;14;4;0;3941;1;0;211;10;5;0;0;0;0;0;0;0;0;6;0;12900;23;7;1;251;578;23;7;0;13333;6;0;415;15;8;0;13610;6;0;413;15;9;0;7253;6;1;443;10
29.12.20;16:15:00;1;282;9288;0;2;3;3878;6;8;416;11;3;2;2391;6;12;496;14;4;0;3941;3;0;221;10;5;0;0;0;0;0;0;0;0;6;33;12900;1;12;18;504;474;24;7;0;13333;6;0;484;15;8;0;13610;6;1;466;15;9;1;7253;6;2;508;11
29.12.20;16:10:00;1;989;9264;0;2;37;3878;6;63;375;11;3;5;2391;6;16;509;14;4;4;3941;3;4;200;10;5;0;0;0;0;0;0;0;0;6;71;12897;4;36;39;449;415;24;7;1;13333;4;6;486;16;8;2;13610;6;7;487;15;9;2;7253;4;3;531;11
29.12.20;16:05:00;1;263;9208;0;2;72;3875;4;105;378;12;3;10;2391;6;18;528;14;4;28;3941;3;29;198;11;5;0;0;0;0;0;0;0;0;6;99;12891;4;51;54;449;414;24;7;56;13333;4;88;417;16;8;47;13610;4;81;410;15;9;5;7253;3;12;534;11
29.12.20;16:00:00;1;274;9186;0;2;92;3869;4;127;383;12;3;7;2390;6;13;553;14;4;41;3938;3;42;197;11;5;0;0;0;0;0;0;0;0;6;121;12882;4;62;70;449;415;24;7;80;13328;4;122;431;16;8;79;13606;4;115;413;16;9;6;7252;6;10;561;11
29.12.20;15:55:00;1;299;9163;0;2;113;3861;4;147;371;12;3;58;2390;4;98;486;15;4;57;3935;3;59;197;11;5;0;0;0;0;0;0;0;0;6;145;12872;4;80;83;449;415;24;7;108;13322;4;141;440;16;8;87;13600;4;132;447;16;9;6;7252;6;9;567;12
29.12.20;15:50:00;1;313;9138;0;2;260;3851;4;298;386;12;3;110;2385;4;150;534;15;4;92;3930;3;96;214;11;5;0;0;0;0;0;0;0;0;6;215;12859;4;106;106;449;415;24;7;194;13313;4;230;486;16;8;152;13592;4;186;473;16;9;46;7252;6;66;523;12
29.12.20;15:45:00;1;493;9094;0;2;313;3827;4;351;380;12;3;150;2375;4;196;542;15;4;139;3922;5;145;235;11;5;0;0;0;0;0;0;0;0;6;301;12839;4;139;153;449;455;24;7;316;13295;4;371;489;16;8;208;13579;4;252;481;16;9;80;7248;4;112;492;12
29.12.20;15:40:00;1;298;9052;0;2;365;3801;4;407;397;13;3;189;2362;4;227;521;15;4;204;3911;5;213;243;11;5;0;0;0;0;0;0;0;0;6;382;12814;4;198;201;461;448;24;7;429;13269;4;477;469;16;8;307;13562;4;348;485;16;9;128;7241;4;163;534;13
29.12.20;15:35:00;1;358;9027;0;2;285;3772;4;327;396;13;3;174;2347;4;215;511;15;4;213;3894;5;222;235;11;5;0;0;0;0;0;0;0;0;6;341;12783;4;181;170;449;415;25;7;346;13234;4;381;471;17;8;312;13537;4;360;481;16;9;156;7230;4;191;524;13
29.12.20;15:30:00;1;378;8997;0;2;306;3748;4;348;401;13;3;186;2332;4;229;515;15;4;223;3876;5;232;235;11;5;0;0;0;0;0;0;0;0;6;349;12754;4;182;175;449;415;25;7;372;13206;4;421;482;17;8;348;13511;4;392;489;16;9;178;7217;4;212;533;13
29.12.20;15:25:00;1;781;8965;0;2;301;3722;4;343;387;13;3;154;2317;4;196;521;15;4;147;3858;5;153;234;11;5;0;0;0;0;0;0;0;0;6;300;12725;4;153;146;451;415;25;7;372;13175;4;420;481;17;8;303;13482;4;351;475;17;9;114;7203;4;146;514;13
29.12.20;15:20:00;1;276;8900;0;2;252;3697;4;291;385;13;3;129;2304;4;173;534;15;4;123;3845;5;128;232;11;5;0;0;0;0;0;0;0;0;6;269;12700;4;142;137;449;415;25;7;324;13143;4;374;480;17;8;278;13457;4;324;481;17;9;90;7193;4;124;530;13
29.12.20;15:15:00;1;278;8876;0;2;240;3675;4;280;396;13;3;137;2293;4;177;522;16;4;136;3835;5;141;232;12;5;0;0;0;0;0;0;0;0;6;302;12678;4;156;173;479;491;25;7;276;13116;4;325;474;17;8;260;13433;4;294;477;17;9;101;7185;4;134;516;13
29.12.20;15:10:00;1;315;8853;0;2;306;3655;4;348;401;13;3;185;2281;4;225;513;16;4;231;3824;5;241;234;12;5;0;0;0;0;0;0;0;0;6;457;12652;4;213;226;588;566;25;7;306;13093;4;360;480;17;8;306;13412;4;345;471;17;9;147;7177;4;183;529;14
29.12.20;15:05:00;1;884;8827;0;2;430;3629;4;478;415;14;3;265;2266;4;314;522;16;4;358;3804;5;373;243;12;5;0;0;0;0;0;0;0;0;6;663;12611;4;342;353;592;578;25;7;483;13067;4;533;466;18;8;481;13386;4;528;474;17;9;252;7164;4;293;526;14
29.12.20;15:00:00;1;286;8768;0;2;392;3594;4;438;409;14;3;243;2244;4;290;512;16;4;322;3774;5;335;240;12;5;0;0;0;0;0;0;0;0;6;599;12556;4;298;309;597;569;25;7;475;13027;4;527;482;18;8;472;13346;4;521;487;17;9;250;7144;4;292;530;14
29.12.20;14:55:00;1;283;8744;0;2;357;3561;4;401;406;14;3;221;2223;4;265;510;16;4;279;3748;5;290;238;12;5;0;0;0;0;0;0;0;0;6;542;12507;4;279;287;585;567;25;7;430;12988;4;479;459;18;8;436;13307;4;479;474;18;9;220;7123;4;258;510;14
29.12.20;14:50:00;1;276;8719;0;2;448;3531;4;494;408;14;3;278;2205;4;323;520;16;4;339;3724;5;352;242;12;5;0;0;0;0;0;0;0;0;6;648;12461;4;329;336;594;579;25;7;540;12952;4;595;486;18;8;523;13270;4;577;480;18;9;261;7104;4;302;533;15
29.12.20;14:45:00;1;718;8692;0;2;598;3494;4;653;421;14;3;374;2181;4;428;523;17;4;472;3696;5;492;243;13;5;0;0;0;0;0;0;0;0;6;849;12406;4;430;438;596;580;25;7;682;12907;4;730;491;18;8;658;13227;4;713;484;18;9;338;7083;4;384;539;15
29.12.20;14:40:00;1;309;8637;0;2;724;3444;4;781;414;15;3;457;2150;4;513;525;17;4;573;3657;5;597;246;13;5;0;0;0;0;0;0;0;0;6;1013;12333;4;490;491;608;579;25;7;859;12850;4;922;489;18;8;853;13172;4;905;481;18;9;448;7054;4;497;542;15
29.12.20;14:35:00;1;310;8612;0;2;617;3384;4;670;414;15;3;389;2112;4;439;516;17;4;514;3609;5;535;246;13;5;0;0;0;0;0;0;0;0;6;938;12245;4;503;512;600;579;25;7;787;12779;4;831;492;19;8;785;13101;4;837;483;18;9;444;7017;4;492;537;16
29.12.20;14:30:00;1;753;8586;0;2;563;3332;4;616;414;15;3;351;2080;4;401;524;17;4;478;3566;5;498;246;13;5;0;0;0;0;0;0;0;0;6;900;12168;4;469;472;604;583;25;7;683;12713;4;737;488;19;8;666;13035;4;727;497;18;9;356;6979;4;400;538;16
29.12.20;14:25:00;1;283;8525;0;2;716;3285;4;773;415;15;3;450;2050;4;507;526;17;4;620;3526;5;646;245;13;5;0;0;0;0;0;0;0;0;6;1150;12091;4;593;577;609;584;25;7;935;12655;4;1003;493;19;8;947;12979;4;1004;488;19;9;496;6949;4;549;543;16
29.12.20;14:20:00;1;266;8500;0;2;658;3225;4;712;416;15;3;419;2013;4;470;516;17;4;554;3474;5;577;248;13;5;0;0;0;0;0;0;0;0;6;1070;11994;4;553;546;606;578;25;7;919;12577;4;975;489;19;8;900;12900;4;960;486;19;9;483;6908;4;534;537;16
29.12.20;14:15:00;1;470;8478;0;2;668;3171;4;725;420;15;3;422;1978;4;474;518;17;4;563;3428;5;587;244;13;5;0;0;0;0;0;0;0;0;6;1084;11906;4;567;552;608;585;25;7;861;12502;4;914;492;20;8;847;12826;4;899;482;19;9;452;6868;4;503;542;17
29.12.20;14:10:00;1;297;8423;0;2;750;3115;4;827;422;15;3;487;1943;4;543;526;17;4;647;3381;5;674;248;13;5;0;0;0;0;0;0;0;0;6;1230;11815;4;613;607;605;586;26;7;989;12430;4;1048;492;20;8;975;12755;4;1032;490;20;9;520;6830;4;572;542;17
29.12.20;14:05:00;1;327;8398;0;2;1296;3052;4;1376;422;15;3;826;1902;4;895;539;17;4;841;3327;5;877;254;13;5;0;0;0;0;0;0;0;0;6;1865;11712;4;960;941;612;592;26;7;1784;12348;4;1875;499;20;8;1753;12674;4;1845;499;20;9;942;6787;4;1014;541;17
29.12.20;14:00:00;1;599;8371;0;2;721;2945;4;779;423;15;3;459;1834;4;515;523;17;4;607;3257;5;632;249;13;5;0;0;0;0;0;0;0;0;6;1178;11556;4;623;615;610;592;26;7;1010;12201;4;1079;491;20;8;1014;12529;4;1069;487;20;9;545;6709;4;604;545;17
29.12.20;13:55:00;1;581;8310;0;2;680;2885;4;737;421;15;3;429;1796;4;483;522;17;4;581;3207;5;605;247;14;5;0;0;0;0;0;0;0;0;6;1117;11460;4;570;566;609;585;26;7;907;12117;4;964;492;21;8;885;12445;4;951;486;20;9;472;6664;4;524;544;18
29.12.20;13:50:00;1;356;8275;0;2;748;2828;4;806;421;16;3;478;1760;4;529;517;17;4;637;3158;5;663;246;14;5;0;0;0;0;0;0;0;0;6;1234;11365;4;618;599;613;588;26;7;1024;12041;4;1095;502;21;8;1006;12371;4;1072;488;21;9;535;6625;4;589;549;18
29.12.20;13:45:00;1;745;8245;0;2;706;2766;4;760;415;16;3;452;1720;4;508;530;17;4;615;3105;5;641;247;14;5;0;0;0;0;0;0;0;0;6;1175;11264;4;593;599;606;590;26;7;945;11955;4;1009;492;22;8;939;12287;4;996;490;21;9;498;6580;4;552;544;18
29.12.20;13:40:00;1;514;8191;0;2;702;2708;4;760;413;16;3;451;1682;4;507;520;17;4;625;3054;5;650;251;14;5;0;0;0;0;0;0;0;0;6;1182;11165;4;599;593;610;583;26;7;949;11877;4;1013;488;22;8;942;12209;4;1004;486;22;9;504;6538;4;559;538;19